When you browse on this site, cookies collect data to enhance your experience and personalize the content and advertising you see.
Visit our Privacy Policy to learn more. By continuing to use the site, you agree to this use of cookies and data.
  • In Czech Republic
  • List of Countries
  • For 7 days
  • Water Temperature
  • Satellite Maps
  • Weather Map
  • Weather Widgets
  • user-avatar
    Login

    Hourly Weather Calgary

    Today, 19 April, Friday

    Time Temperature Precipitation Wind Pressure Humidity
    00:00 +9°C° 0 mm 3 mps 662 mmHg 64%
    01:00 +8°C° 0 mm 2 mps 661 mmHg 66%
    02:00 +7°C° 0 mm 2 mps 661 mmHg 69%
    03:00 +7°C° 0 mm 2 mps 661 mmHg 72%
    04:00 +6°C° 0 mm 2 mps 661 mmHg 74%
    05:00 +5°C° 0 mm 3 mps 661 mmHg 76%
    06:00 +5°C° 0 mm 4 mps 661 mmHg 78%
    07:00 +5°C° 0 mm 4 mps 661 mmHg 80%
    08:00 +6°C° 0 mm 4 mps 661 mmHg 75%
    09:00 +7°C° 0 mm 4 mps 661 mmHg 70%
    10:00 +8°C° 0 mm 4 mps 662 mmHg 65%
    11:00 +8°C° 0 mm 4 mps 661 mmHg 65%
    12:00 +8°C° 0 mm 4 mps 661 mmHg 64%
    13:00 +8°C° 0 mm 4 mps 661 mmHg 64%
    14:00 +7°C° 0.2 mm 5 mps 660 mmHg 66%
    15:00 +5°C° 0.2 mm 5 mps 660 mmHg 68%
    16:00 +3°C° 0.2 mm 5 mps 660 mmHg 70%
    17:00 +3°C° 0.3 mm 5 mps 660 mmHg 72%
    18:00 +2°C° 0.3 mm 5 mps 660 mmHg 75%
    19:00 +1°C° 0.3 mm 5 mps 661 mmHg 77%
    20:00 +1°C° 0.1 mm 5 mps 661 mmHg 77%
    21:00 +1°C° 0.1 mm 5 mps 662 mmHg 77%
    22:00 +1°C° 0.1 mm 4 mps 663 mmHg 77%
    23:00 0°C° 0.1 mm 4 mps 663 mmHg 75%

    Tomorrow, 20 April, Saturday

    Time Temperature Precipitation Wind Pressure Humidity
    00:00 +1°C° 0.1 mm 3 mps 663 mmHg 74%
    01:00 +1°C° 0.1 mm 3 mps 663 mmHg 73%
    02:00 +1°C° 0 mm 3 mps 664 mmHg 72%
    03:00 0°C° 0 mm 3 mps 664 mmHg 72%
    04:00 +1°C° 0 mm 2 mps 664 mmHg 72%
    05:00 +2°C° 0 mm 2 mps 664 mmHg 67%
    06:00 +3°C° 0 mm 2 mps 665 mmHg 62%
    07:00 +5°C° 0 mm 1 mps 665 mmHg 57%
    08:00 +5°C° 0 mm 2 mps 665 mmHg 54%
    09:00 +5°C° 0 mm 3 mps 666 mmHg 51%
    10:00 +6°C° 0 mm 4 mps 666 mmHg 49%
    11:00 +6°C° 0 mm 4 mps 666 mmHg 46%
    12:00 +8°C° 0 mm 3 mps 666 mmHg 44%
    13:00 +9°C° 0 mm 3 mps 666 mmHg 42%
    14:00 +9°C° 0 mm 3 mps 666 mmHg 42%
    15:00 +9°C° 0 mm 2 mps 666 mmHg 41%
    16:00 +9°C° 0 mm 2 mps 666 mmHg 41%
    17:00 +8°C° 0 mm 2 mps 666 mmHg 45%
    18:00 +8°C° 0 mm 1 mps 667 mmHg 48%
    19:00 +8°C° 0 mm 1 mps 667 mmHg 52%
    20:00 +7°C° 0.1 mm 1 mps 668 mmHg 55%
    21:00 +7°C° 0.1 mm 1 mps 668 mmHg 58%
    22:00 +6°C° 0.1 mm 1 mps 669 mmHg 61%
    23:00 +6°C° 0.1 mm 1 mps 669 mmHg 62%

    Day after tomorrow, 21 April, Sunday

    Time Temperature Precipitation Wind Pressure Humidity
    00:00 +6°C° 0.1 mm 1 mps 669 mmHg 63%
    01:00 +5°C° 0.1 mm 1 mps 669 mmHg 64%
    02:00 +5°C° 0 mm 1 mps 670 mmHg 64%
    03:00 +4°C° 0 mm 2 mps 670 mmHg 64%
    04:00 +3°C° 0 mm 2 mps 670 mmHg 64%
    05:00 +3°C° 0 mm 3 mps 670 mmHg 60%
    06:00 +4°C° 0 mm 3 mps 670 mmHg 55%
    07:00 +4°C° 0 mm 4 mps 670 mmHg 51%
    08:00 +6°C° 0 mm 4 mps 670 mmHg 48%
    09:00 +7°C° 0 mm 4 mps 670 mmHg 46%
    10:00 +9°C° 0 mm 5 mps 670 mmHg 43%
    11:00 +11°C° 0 mm 4 mps 670 mmHg 41%
    12:00 +12°C° 0 mm 4 mps 669 mmHg 38%
    13:00 +13°C° 0 mm 3 mps 669 mmHg 36%
    14:00 +13°C° 0 mm 3 mps 669 mmHg 35%
    15:00 +14°C° 0 mm 3 mps 669 mmHg 35%
    16:00 +14°C° 0 mm 3 mps 669 mmHg 34%
    17:00 +13°C° 0 mm 3 mps 669 mmHg 39%
    18:00 +12°C° 0 mm 2 mps 669 mmHg 43%
    19:00 +10°C° 0 mm 2 mps 669 mmHg 47%
    20:00 +9°C° 0 mm 2 mps 669 mmHg 51%
    21:00 +8°C° 0 mm 2 mps 669 mmHg 55%
    22:00 +8°C° 0 mm 1 mps 669 mmHg 58%
    23:00 +7°C° 0 mm 2 mps 669 mmHg 59%

    22 April, Monday

    Time Temperature Precipitation Wind Pressure Humidity
    00:00 +5°C° 0 mm 3 mps 669 mmHg 59%
    01:00 +4°C° 0 mm 4 mps 669 mmHg 60%
    02:00 +4°C° 0 mm 3 mps 669 mmHg 58%
    03:00 +3°C° 0 mm 3 mps 669 mmHg 56%
    04:00 +3°C° 0 mm 3 mps 669 mmHg 55%
    05:00 +5°C° 0 mm 2 mps 670 mmHg 50%
    06:00 +7°C° 0 mm 2 mps 670 mmHg 46%
    07:00 +9°C° 0 mm 1 mps 670 mmHg 42%
    08:00 +10°C° 0 mm 2 mps 670 mmHg 38%
    09:00 +13°C° 0 mm 2 mps 670 mmHg 35%
    10:00 +14°C° 0 mm 2 mps 670 mmHg 32%
    11:00 +16°C° 0 mm 3 mps 670 mmHg 30%
    12:00 +17°C° 0 mm 3 mps 670 mmHg 28%
    13:00 +18°C° 0 mm 3 mps 669 mmHg 26%
    14:00 +18°C° 0 mm 3 mps 669 mmHg 25%
    15:00 +19°C° 0 mm 3 mps 668 mmHg 24%
    16:00 +19°C° 0 mm 3 mps 668 mmHg 24%
    17:00 +18°C° 0 mm 2 mps 668 mmHg 28%
    18:00 +16°C° 0 mm 2 mps 667 mmHg 32%
    19:00 +14°C° 0 mm 1 mps 667 mmHg 36%
    20:00 +13°C° 0 mm 2 mps 666 mmHg 38%
    21:00 +12°C° 0 mm 2 mps 666 mmHg 40%
    22:00 +12°C° 0 mm 2 mps 666 mmHg 42%
    23:00 +10°C° 0 mm 2 mps 665 mmHg 44%

    23 April, Tuesday

    Time Temperature Precipitation Wind Pressure Humidity
    00:00 +10°C° 0 mm 2 mps 665 mmHg 46%
    01:00 +10°C° 0 mm 2 mps 664 mmHg 48%
    02:00 +10°C° 0 mm 2 mps 664 mmHg 48%
    03:00 +10°C° 0 mm 2 mps 664 mmHg 49%
    04:00 +10°C° 0 mm 2 mps 664 mmHg 50%
    05:00 +10°C° 0 mm 3 mps 664 mmHg 50%
    06:00 +11°C° 0 mm 3 mps 665 mmHg 51%
    07:00 +11°C° 0 mm 4 mps 665 mmHg 51%
    08:00 +13°C° 0 mm 4 mps 665 mmHg 47%
    09:00 +15°C° 0 mm 4 mps 665 mmHg 43%
    10:00 +18°C° 0 mm 4 mps 665 mmHg 39%
    11:00 +18°C° 0 mm 4 mps 665 mmHg 36%
    12:00 +19°C° 0 mm 4 mps 665 mmHg 33%
    13:00 +20°C° 0 mm 5 mps 665 mmHg 30%
    14:00 +20°C° 0 mm 5 mps 665 mmHg 28%
    15:00 +20°C° 0 mm 6 mps 665 mmHg 25%
    16:00 +21°C° 0 mm 7 mps 664 mmHg 23%
    17:00 +19°C° 0 mm 5 mps 664 mmHg 29%
    18:00 +15°C° 0 mm 4 mps 664 mmHg 34%
    19:00 +14°C° 0 mm 2 mps 664 mmHg 40%
    20:00 +13°C° 0 mm 2 mps 663 mmHg 50%
    21:00 +10°C° 0 mm 2 mps 663 mmHg 61%
    22:00 +9°C° 0 mm 2 mps 663 mmHg 71%
    23:00 +8°C° 0 mm 2 mps 663 mmHg 78%

    24 April, Wednesday

    Time Temperature Precipitation Wind Pressure Humidity
    00:00 +7°C° 0 mm 2 mps 663 mmHg 85%
    01:00 +7°C° 0 mm 2 mps 663 mmHg 91%
    02:00 +7°C° 0.1 mm 3 mps 663 mmHg 89%
    03:00 +5°C° 0.1 mm 4 mps 664 mmHg 88%
    04:00 +5°C° 0.1 mm 4 mps 664 mmHg 86%
    05:00 +5°C° 0 mm 4 mps 664 mmHg 81%
    06:00 +5°C° 0 mm 4 mps 664 mmHg 75%
    07:00 +5°C° 0 mm 3 mps 664 mmHg 70%
    08:00 +7°C° 0 mm 3 mps 665 mmHg 65%
    09:00 +8°C° 0 mm 3 mps 665 mmHg 59%
    10:00 +10°C° 0 mm 2 mps 665 mmHg 54%
    11:00 +10°C° 0 mm 2 mps 665 mmHg 51%
    12:00 +12°C° 0 mm 2 mps 664 mmHg 49%
    13:00 +13°C° 0 mm 2 mps 664 mmHg 46%
    14:00 +13°C° 0.3 mm 2 mps 664 mmHg 45%
    15:00 +13°C° 0.3 mm 2 mps 664 mmHg 43%
    16:00 +14°C° 0.3 mm 2 mps 664 mmHg 42%
    17:00 +13°C° 0.2 mm 2 mps 664 mmHg 45%
    18:00 +12°C° 0.2 mm 2 mps 664 mmHg 49%
    19:00 +10°C° 0.2 mm 2 mps 664 mmHg 52%
    20:00 +8°C° 0.1 mm 2 mps 664 mmHg 58%
    21:00 +7°C° 0.1 mm 2 mps 664 mmHg 63%
    22:00 +6°C° 0.1 mm 2 mps 664 mmHg 69%
    23:00 +5°C° 0.1 mm 3 mps 665 mmHg 66%
    Show more